Time,TemperatureF,DewpointF,PressureIn,WindDirection,WindDirectionDegrees,WindSpeedMPH,WindSpeedGustMPH,Humidity,HourlyPrecipIn,Conditions,Clouds,dailyrainin,SoftwareType,DateUTC
2013-05-12 00:02:00,63.0,62.4,29.91,North,0,1.0,2.0,98,0.00,,,0.44,meteohub,2013-05-12 04:02:00,
2013-05-12 00:12:00,62.1,61.5,29.91,North,0,2.0,3.0,98,0.00,,,0.00,meteohub,2013-05-12 04:12:00,
2013-05-12 00:22:00,62.1,61.5,29.91,North,0,2.0,4.0,98,0.00,,,0.00,meteohub,2013-05-12 04:22:00,
2013-05-12 00:32:00,62.1,61.5,29.90,NNW,337,0.0,4.0,98,0.00,,,0.00,meteohub,2013-05-12 04:32:00,
2013-05-12 00:42:00,61.0,60.4,29.90,North,0,2.0,2.0,98,0.00,,,0.00,meteohub,2013-05-12 04:42:00,
2013-05-12 00:52:00,61.0,60.4,29.90,North,0,2.0,2.0,98,0.00,,,0.00,meteohub,2013-05-12 04:52:00,
2013-05-12 01:02:00,61.0,60.1,29.91,North,0,1.0,2.0,97,0.00,,,0.00,meteohub,2013-05-12 05:02:00,
2013-05-12 01:12:00,61.0,59.9,29.91,North,0,1.0,4.0,96,0.00,,,0.00,meteohub,2013-05-12 05:12:00,
2013-05-12 01:22:00,61.0,59.9,29.91,North,0,1.0,3.0,96,0.00,,,0.00,meteohub,2013-05-12 05:22:00,
2013-05-12 01:32:00,61.0,59.2,29.91,North,0,1.0,4.0,94,0.00,,,0.00,meteohub,2013-05-12 05:32:00,
2013-05-12 01:42:00,61.0,59.0,29.90,North,0,1.0,4.0,93,0.00,,,0.00,meteohub,2013-05-12 05:42:00,
2013-05-12 01:52:00,61.0,59.5,29.89,NW,315,2.0,4.0,95,0.00,,,0.00,meteohub,2013-05-12 05:52:00,
2013-05-12 02:02:00,61.0,58.6,29.89,NW,315,3.0,4.0,92,0.00,,,0.00,meteohub,2013-05-12 06:02:00,
2013-05-12 02:12:00,61.0,57.7,29.90,NW,315,5.0,7.0,89,0.00,,,0.00,meteohub,2013-05-12 06:12:00,
2013-05-12 02:22:00,60.1,56.5,29.90,NNW,337,1.0,9.0,88,0.00,,,0.00,meteohub,2013-05-12 06:22:00,
2013-05-12 02:32:00,60.1,56.1,29.90,NW,315,2.0,9.0,87,0.00,,,0.00,meteohub,2013-05-12 06:32:00,
2013-05-12 02:42:00,60.1,56.5,29.89,North,0,4.0,7.0,88,0.00,,,0.00,meteohub,2013-05-12 06:42:00,
2013-05-12 02:52:00,60.1,55.6,29.89,North,0,2.0,7.0,85,0.00,,,0.00,meteohub,2013-05-12 06:52:00,
2013-05-12 03:02:00,60.1,54.5,29.89,NW,315,7.0,11.0,82,0.00,,,0.00,meteohub,2013-05-12 07:02:00,
2013-05-12 03:12:00,60.1,52.9,29.89,NW,315,5.0,11.0,77,0.00,,,0.00,meteohub,2013-05-12 07:12:00,
2013-05-12 03:22:00,60.1,52.2,29.89,NNW,337,2.0,11.0,75,0.00,,,0.00,meteohub,2013-05-12 07:22:00,
2013-05-12 03:32:00,60.1,52.2,29.89,West,270,6.0,11.0,75,0.00,,,0.00,meteohub,2013-05-12 07:32:00,
2013-05-12 03:42:00,60.1,52.2,29.90,North,0,1.0,7.0,75,0.00,,,0.00,meteohub,2013-05-12 07:42:00,
2013-05-12 03:52:00,60.1,52.2,29.90,North,0,2.0,7.0,75,0.00,,,0.00,meteohub,2013-05-12 07:52:00,
2013-05-12 04:02:00,59.0,51.1,29.90,NW,315,2.0,6.0,75,0.00,,,0.00,meteohub,2013-05-12 08:02:00,
2013-05-12 04:12:00,59.0,51.1,29.90,North,0,1.0,6.0,75,0.00,,,0.00,meteohub,2013-05-12 08:12:00,
2013-05-12 04:22:00,59.0,50.4,29.90,NW,315,3.0,6.0,73,0.00,,,0.00,meteohub,2013-05-12 08:22:00,
2013-05-12 04:32:00,59.0,50.7,29.90,North,0,4.0,7.0,74,0.00,,,0.00,meteohub,2013-05-12 08:32:00,
2013-05-12 04:42:00,59.0,50.4,29.90,North,0,4.0,11.0,73,0.00,,,0.00,meteohub,2013-05-12 08:42:00,
2013-05-12 04:52:00,59.0,50.7,29.91,North,0,2.0,9.0,74,0.00,,,0.00,meteohub,2013-05-12 08:52:00,
2013-05-12 05:02:00,59.0,50.0,29.91,North,0,1.0,8.0,72,0.00,,,0.00,meteohub,2013-05-12 09:02:00,
2013-05-12 05:12:00,57.9,48.9,29.91,North,0,4.0,7.0,72,0.00,,,0.00,meteohub,2013-05-12 09:12:00,
2013-05-12 05:22:00,57.9,48.6,29.90,NW,315,2.0,9.0,71,0.00,,,0.00,meteohub,2013-05-12 09:22:00,
2013-05-12 05:32:00,57.9,48.9,29.91,NNW,337,2.0,7.0,72,0.00,,,0.00,meteohub,2013-05-12 09:32:00,
2013-05-12 05:42:00,57.0,47.7,29.91,North,0,2.0,7.0,71,0.00,,,0.00,meteohub,2013-05-12 09:42:00,
2013-05-12 05:52:00,57.0,47.7,29.91,NW,315,1.0,7.0,71,0.00,,,0.00,meteohub,2013-05-12 09:52:00,
2013-05-12 06:02:00,57.0,48.0,29.90,North,0,1.0,7.0,72,0.00,,,0.00,meteohub,2013-05-12 10:02:00,
2013-05-12 06:12:00,57.0,48.0,29.90,NW,315,0.0,8.0,72,0.00,,,0.00,meteohub,2013-05-12 10:12:00,
2013-05-12 06:22:00,55.9,47.1,29.90,North,0,1.0,8.0,72,0.00,,,0.00,meteohub,2013-05-12 10:22:00,
2013-05-12 06:32:00,55.9,47.1,29.91,North,0,1.0,5.0,72,0.00,,,0.00,meteohub,2013-05-12 10:32:00,
2013-05-12 06:42:00,55.9,47.5,29.91,NNW,337,1.0,6.0,73,0.00,,,0.00,meteohub,2013-05-12 10:42:00,
2013-05-12 06:52:00,55.9,47.8,29.91,North,0,1.0,6.0,74,0.00,,,0.00,meteohub,2013-05-12 10:52:00,
2013-05-12 07:02:00,55.9,48.2,29.91,North,0,1.0,5.0,75,0.00,,,0.00,meteohub,2013-05-12 11:02:00,
2013-05-12 07:12:00,55.9,48.2,29.91,NNW,337,2.0,3.0,75,0.00,,,0.00,meteohub,2013-05-12 11:12:00,
2013-05-12 07:22:00,55.9,48.6,29.91,North,0,2.0,5.0,76,0.00,,,0.00,meteohub,2013-05-12 11:22:00,
2013-05-12 07:32:00,55.9,48.2,29.91,North,0,1.0,5.0,75,0.00,,,0.00,meteohub,2013-05-12 11:32:00,
2013-05-12 07:42:00,57.0,48.0,29.92,NNE,22,1.0,9.0,72,0.00,,,0.00,meteohub,2013-05-12 11:42:00,
2013-05-12 07:52:00,57.9,48.6,29.93,North,0,2.0,14.0,71,0.00,,,0.00,meteohub,2013-05-12 11:52:00,
2013-05-12 08:02:00,59.0,48.9,29.93,NW,315,4.0,10.0,69,0.00,,,0.00,meteohub,2013-05-12 12:02:00,
2013-05-12 08:12:00,59.0,48.4,29.94,North,0,3.0,12.0,68,0.00,,,0.00,meteohub,2013-05-12 12:12:00,
2013-05-12 08:22:00,60.1,47.8,29.95,NW,315,5.0,13.0,64,0.00,,,0.00,meteohub,2013-05-12 12:22:00,
2013-05-12 08:32:00,60.1,46.2,29.95,North,0,6.0,12.0,60,0.00,,,0.00,meteohub,2013-05-12 12:32:00,
2013-05-12 08:42:00,60.1,44.4,29.96,South,180,6.0,17.0,56,0.00,,,0.00,meteohub,2013-05-12 12:42:00,
2013-05-12 08:52:00,59.0,43.3,29.97,NW,315,5.0,19.0,56,0.01,,,0.01,meteohub,2013-05-12 12:52:00,
2013-05-12 09:02:00,59.0,43.3,29.97,NW,315,4.0,12.0,56,0.01,,,0.01,meteohub,2013-05-12 13:02:00,
2013-05-12 09:12:00,57.9,43.7,29.97,North,0,2.0,11.0,59,0.01,,,0.01,meteohub,2013-05-12 13:12:00,
2013-05-12 09:22:00,57.9,42.3,29.97,NW,315,3.0,11.0,56,0.01,,,0.01,meteohub,2013-05-12 13:22:00,
2013-05-12 09:32:00,57.9,42.3,29.97,North,0,2.0,19.0,56,0.01,,,0.01,meteohub,2013-05-12 13:32:00,
2013-05-12 09:42:00,59.0,38.8,29.98,NW,315,2.0,14.0,47,0.01,,,0.01,meteohub,2013-05-12 13:42:00,
2013-05-12 09:52:00,57.9,36.7,29.98,NW,315,3.0,14.0,45,0.00,,,0.01,meteohub,2013-05-12 13:52:00,
2013-05-12 10:02:00,59.0,38.3,29.98,NNW,337,4.0,16.0,46,0.00,,,0.01,meteohub,2013-05-12 14:02:00,
2013-05-12 10:12:00,59.0,37.0,29.99,NW,315,4.0,19.0,44,0.00,,,0.01,meteohub,2013-05-12 14:12:00,
2013-05-12 10:22:00,59.0,37.0,29.99,NW,315,4.0,19.0,44,0.00,,,0.01,meteohub,2013-05-12 14:22:00,
2013-05-12 10:32:00,59.0,36.5,29.99,NW,315,3.0,16.0,43,0.00,,,0.01,meteohub,2013-05-12 14:32:00,
2013-05-12 10:42:00,60.1,36.9,30.00,North,0,2.0,17.0,42,0.00,,,0.01,meteohub,2013-05-12 14:42:00,
2013-05-12 10:52:00,60.1,36.9,30.00,WNW,292,1.0,17.0,42,0.00,,,0.01,meteohub,2013-05-12 14:52:00,
2013-05-12 11:02:00,60.1,35.1,30.01,NW,315,14.0,14.0,39,0.00,,,0.01,meteohub,2013-05-12 15:02:00,
2013-05-12 11:12:00,60.1,36.3,30.00,West,270,1.0,18.0,41,0.00,,,0.01,meteohub,2013-05-12 15:12:00,
2013-05-12 11:22:00,60.1,36.9,30.00,NE,45,4.0,12.0,42,0.00,,,0.01,meteohub,2013-05-12 15:22:00,
2013-05-12 11:32:00,60.1,36.3,30.00,NW,315,1.0,11.0,41,0.00,,,0.01,meteohub,2013-05-12 15:32:00,
2013-05-12 11:42:00,60.1,36.3,30.00,NW,315,2.0,11.0,41,0.00,,,0.01,meteohub,2013-05-12 15:42:00,
2013-05-12 11:52:00,61.0,38.3,30.00,NW,315,4.0,11.0,43,0.00,,,0.01,meteohub,2013-05-12 15:52:00,
2013-05-12 12:02:00,61.0,37.8,30.01,North,0,6.0,13.0,42,0.00,,,0.01,meteohub,2013-05-12 16:02:00,
2013-05-12 12:12:00,60.1,36.9,30.01,North,0,4.0,16.0,42,0.00,,,0.01,meteohub,2013-05-12 16:12:00,
2013-05-12 12:22:00,60.1,36.3,30.01,NW,315,3.0,16.0,41,0.00,,,0.01,meteohub,2013-05-12 16:22:00,
2013-05-12 12:32:00,60.1,34.3,30.01,North,0,2.0,17.0,38,0.00,,,0.01,meteohub,2013-05-12 16:32:00,
2013-05-12 12:42:00,60.1,33.1,30.01,SW,225,1.0,15.0,36,0.00,,,0.01,meteohub,2013-05-12 16:42:00,
2013-05-12 12:52:00,60.1,32.4,30.00,NW,315,1.0,16.0,35,0.00,,,0.01,meteohub,2013-05-12 16:52:00,
2013-05-12 13:02:00,61.0,32.4,30.01,NW,315,3.0,16.0,34,0.00,,,0.01,meteohub,2013-05-12 17:02:00,
2013-05-12 13:12:00,61.0,31.6,30.02,NW,315,2.0,10.0,33,0.00,,,0.01,meteohub,2013-05-12 17:12:00,
2013-05-12 13:22:00,62.1,31.1,30.01,SSE,157,2.0,14.0,31,0.00,,,0.01,meteohub,2013-05-12 17:22:00,
2013-05-12 13:32:00,62.1,31.1,30.01,WNW,292,4.0,11.0,31,0.00,,,0.01,meteohub,2013-05-12 17:32:00,
2013-05-12 13:42:00,61.0,28.6,30.02,NW,315,4.0,12.0,29,0.00,,,0.01,meteohub,2013-05-12 17:42:00,
2013-05-12 13:52:00,62.1,30.2,30.01,NW,315,3.0,17.0,30,0.00,,,0.01,meteohub,2013-05-12 17:52:00,
2013-05-12 14:02:00,63.0,31.1,30.02,North,0,2.0,11.0,30,0.00,,,0.01,meteohub,2013-05-12 18:02:00,
2013-05-12 14:12:00,63.0,28.4,30.03,West,270,2.0,11.0,27,0.00,,,0.01,meteohub,2013-05-12 18:12:00,
2013-05-12 14:22:00,62.1,30.2,30.03,West,270,3.0,14.0,30,0.00,,,0.01,meteohub,2013-05-12 18:22:00,
2013-05-12 14:32:00,63.0,28.4,30.03,NNW,337,2.0,9.0,27,0.00,,,0.01,meteohub,2013-05-12 18:32:00,
2013-05-12 14:42:00,64.0,28.4,30.03,West,270,2.0,19.0,26,0.00,,,0.01,meteohub,2013-05-12 18:42:00,
2013-05-12 14:52:00,64.0,27.5,30.03,SW,225,2.0,12.0,25,0.00,,,0.01,meteohub,2013-05-12 18:52:00,
2013-05-12 15:02:00,63.0,27.5,30.03,North,0,17.0,17.0,26,0.00,,,0.01,meteohub,2013-05-12 19:02:00,
2013-05-12 15:12:00,64.0,29.3,30.03,NW,315,4.0,17.0,27,0.00,,,0.01,meteohub,2013-05-12 19:12:00,
2013-05-12 15:22:00,64.0,28.4,30.03,NNW,337,2.0,12.0,26,0.00,,,0.01,meteohub,2013-05-12 19:22:00,
2013-05-12 15:32:00,63.0,28.4,30.03,NW,315,7.0,18.0,27,0.00,,,0.01,meteohub,2013-05-12 19:32:00,
2013-05-12 15:42:00,63.0,30.2,30.03,West,270,2.0,13.0,29,0.00,,,0.01,meteohub,2013-05-12 19:42:00,
2013-05-12 15:52:00,64.0,30.2,30.03,NW,315,6.0,19.0,28,0.00,,,0.01,meteohub,2013-05-12 19:52:00,
2013-05-12 16:02:00,64.0,30.2,30.03,NW,315,3.0,25.0,28,0.00,,,0.01,meteohub,2013-05-12 20:02:00,
2013-05-12 16:12:00,64.0,30.2,30.03,NW,315,1.0,9.0,28,0.00,,,0.01,meteohub,2013-05-12 20:12:00,
2013-05-12 16:22:00,64.0,30.2,30.04,NW,315,4.0,10.0,28,0.00,,,0.01,meteohub,2013-05-12 20:22:00,
2013-05-12 16:32:00,64.0,30.2,30.04,NW,315,5.0,16.0,28,0.00,,,0.01,meteohub,2013-05-12 20:32:00,
2013-05-12 16:42:00,64.0,29.3,30.03,North,0,4.0,16.0,27,0.00,,,0.01,meteohub,2013-05-12 20:42:00,
2013-05-12 16:52:00,63.0,28.4,30.04,West,270,2.0,17.0,27,0.00,,,0.01,meteohub,2013-05-12 20:52:00,
2013-05-12 17:02:00,63.0,28.4,30.04,North,0,3.0,17.0,27,0.00,,,0.01,meteohub,2013-05-12 21:02:00,
2013-05-12 17:12:00,63.0,29.3,30.03,North,0,6.0,15.0,28,0.00,,,0.01,meteohub,2013-05-12 21:12:00,
2013-05-12 17:22:00,63.0,29.3,30.04,NW,315,8.0,14.0,28,0.00,,,0.01,meteohub,2013-05-12 21:22:00,
2013-05-12 17:32:00,63.0,28.4,30.04,NW,315,6.0,16.0,27,0.00,,,0.01,meteohub,2013-05-12 21:32:00,
2013-05-12 17:42:00,63.0,29.3,30.04,NW,315,9.0,14.0,28,0.00,,,0.01,meteohub,2013-05-12 21:42:00,
2013-05-12 17:52:00,63.0,30.2,30.04,NW,315,1.0,17.0,29,0.00,,,0.01,meteohub,2013-05-12 21:52:00,
2013-05-12 18:02:00,63.0,29.3,30.05,NW,315,4.0,16.0,28,0.00,,,0.01,meteohub,2013-05-12 22:02:00,
2013-05-12 18:12:00,62.1,28.6,30.05,North,0,2.0,17.0,28,0.00,,,0.01,meteohub,2013-05-12 22:12:00,
2013-05-12 18:22:00,62.1,27.7,30.05,NE,45,7.0,14.0,27,0.00,,,0.01,meteohub,2013-05-12 22:22:00,
2013-05-12 18:32:00,61.0,27.7,30.05,WNW,292,5.0,16.0,28,0.00,,,0.01,meteohub,2013-05-12 22:32:00,
2013-05-12 18:42:00,61.0,27.7,30.05,North,0,4.0,12.0,28,0.00,,,0.01,meteohub,2013-05-12 22:42:00,
2013-05-12 18:52:00,61.0,28.6,30.05,North,0,4.0,14.0,29,0.00,,,0.01,meteohub,2013-05-12 22:52:00,
2013-05-12 19:02:00,60.1,28.6,30.05,NW,315,4.0,11.0,30,0.00,,,0.01,meteohub,2013-05-12 23:02:00,
2013-05-12 19:12:00,59.0,29.1,30.05,NW,315,2.0,14.0,32,0.00,,,0.01,meteohub,2013-05-12 23:12:00,
2013-05-12 19:22:00,59.0,29.1,30.06,NW,315,4.0,13.0,32,0.00,,,0.01,meteohub,2013-05-12 23:22:00,
2013-05-12 19:32:00,57.9,28.9,30.06,North,0,15.0,15.0,33,0.00,,,0.01,meteohub,2013-05-12 23:32:00,
2013-05-12 19:42:00,57.9,28.9,30.06,NW,315,10.0,15.0,33,0.00,,,0.01,meteohub,2013-05-12 23:42:00,
2013-05-12 19:52:00,57.0,28.9,30.07,North,0,1.0,12.0,34,0.00,,,0.01,meteohub,2013-05-12 23:52:00,
2013-05-12 20:02:00,57.0,29.7,30.07,NW,315,2.0,12.0,35,0.00,,,0.01,meteohub,2013-05-13 00:02:00,
2013-05-12 20:12:00,57.0,28.9,30.07,NW,315,1.0,12.0,34,0.00,,,0.01,meteohub,2013-05-13 00:12:00,
2013-05-12 20:22:00,55.9,28.8,30.07,NW,315,2.0,12.0,35,0.00,,,0.01,meteohub,2013-05-13 00:22:00,
2013-05-12 20:32:00,55.9,29.3,30.08,North,0,2.0,12.0,36,0.00,,,0.01,meteohub,2013-05-13 00:32:00,
2013-05-12 20:42:00,55.9,29.3,30.09,NNW,337,2.0,7.0,36,0.00,,,0.01,meteohub,2013-05-13 00:42:00,
2013-05-12 20:52:00,55.0,28.6,30.09,North,0,3.0,6.0,36,0.00,,,0.01,meteohub,2013-05-13 00:52:00,
2013-05-12 21:02:00,55.0,29.3,30.09,NNW,337,2.0,6.0,37,0.00,,,0.01,meteohub,2013-05-13 01:02:00,
2013-05-12 21:12:00,55.0,28.6,30.10,NNW,337,2.0,4.0,36,0.00,,,0.01,meteohub,2013-05-13 01:12:00,
2013-05-12 21:22:00,54.0,28.2,30.10,North,0,2.0,4.0,37,0.00,,,0.01,meteohub,2013-05-13 01:22:00,
2013-05-12 21:32:00,54.0,28.2,30.11,NW,315,1.0,6.0,37,0.00,,,0.01,meteohub,2013-05-13 01:32:00,
2013-05-12 21:42:00,54.0,28.2,30.11,North,0,1.0,5.0,37,0.00,,,0.01,meteohub,2013-05-13 01:42:00,
2013-05-12 21:52:00,54.0,28.9,30.11,North,0,0.0,6.0,38,0.00,,,0.01,meteohub,2013-05-13 01:52:00,
2013-05-12 22:02:00,54.0,28.9,30.12,SSW,202,2.0,6.0,38,0.00,,,0.01,meteohub,2013-05-13 02:02:00,
2013-05-12 22:12:00,54.0,28.9,30.12,West,270,0.0,5.0,38,0.00,,,0.01,meteohub,2013-05-13 02:12:00,
2013-05-12 22:22:00,53.1,29.3,30.12,SSE,157,0.0,4.0,40,0.00,,,0.01,meteohub,2013-05-13 02:22:00,
2013-05-12 22:32:00,52.0,29.7,30.13,North,0,0.0,2.0,42,0.00,,,0.01,meteohub,2013-05-13 02:32:00,
2013-05-12 22:42:00,51.1,28.2,30.13,NW,315,0.0,2.0,41,0.00,,,0.01,meteohub,2013-05-13 02:42:00,
2013-05-12 22:52:00,51.1,29.3,30.13,NW,315,3.0,3.0,43,0.00,,,0.01,meteohub,2013-05-13 02:52:00,
2013-05-12 23:02:00,51.1,28.2,30.13,North,0,1.0,5.0,41,0.00,,,0.01,meteohub,2013-05-13 03:02:00,
2013-05-12 23:12:00,51.1,28.2,30.13,NW,315,2.0,5.0,41,0.00,,,0.01,meteohub,2013-05-13 03:12:00,
2013-05-12 23:22:00,51.1,27.7,30.13,East,90,1.0,7.0,40,0.00,,,0.01,meteohub,2013-05-13 03:22:00,
2013-05-12 23:32:00,51.1,28.2,30.13,NE,45,0.0,3.0,41,0.00,,,0.01,meteohub,2013-05-13 03:32:00,
2013-05-12 23:42:00,51.1,28.2,30.13,North,0,1.0,6.0,41,0.00,,,0.01,meteohub,2013-05-13 03:42:00,
2013-05-12 23:52:00,51.1,27.7,30.13,North,0,2.0,6.0,40,0.00,,,0.01,meteohub,2013-05-13 03:52:00,